[[{"header":{"parameterUnit":"m.s-1","parameterCategory":1,"la1":30.2991,"la2":30.254,"lo1":-89.0895,"lo2":-89.0444,"dy":0.0017,"dx":0.0017,"nx":28,"ny":28,"refTime":"2025-05-28T09:00:00:Z","depth":0,"parameterNumber":2,"parameterNumberName":"U-component_of_WINDS"},"data":[0,0,0,0,0,0,0,0,0,0,0,0,0,0,0,0,0,0,0,0,0,0,0,0,0,0,0,0,0,0,0,0,0,0,0,0,0,0,0,0,0,0,0,0,0,0,0,0,0,0,0,0,0,0,0,0,0,0,3.4361,3.4362,0,3.4471,3.4472,3.4473,3.4435,3.4433,3.443,3.4428,3.454,3.4545,3.455,0,0,0,0,0,0,0,0,0,0,0,0,0,3.4115,3.412,3.4361,3.4362,3.4364,3.447,3.4472,3.4473,3.4436,3.4433,3.443,3.4427,3.4538,3.4544,3.4551,0,0,0,0,0,0,0,0,0,0,0,0,0,3.4223,3.4121,3.4361,3.4358,3.4358,3.447,3.4472,3.4474,3.4436,3.4433,3.4429,3.4426,3.4536,3.4544,3.4551,3.4672,0,0,3.4575,3.4579,0,0,0,0,0,0,0,0,3.4217,3.4232,3.4357,3.4358,3.4359,3.4435,3.4426,3.454,3.4437,3.4407,3.4428,3.4424,3.4508,3.4518,3.4546,3.4678,3.4682,3.4576,3.4581,3.4584,3.4586,0,0,0,0,0,0,0,3.421,3.4227,3.4404,3.4359,3.436,3.435,3.4361,3.4448,3.4476,3.4409,3.4407,3.442,3.4508,3.4539,3.4549,3.4684,3.4576,3.4583,3.4588,3.4591,3.4914,3.4918,0,0,0,0,0,0,3.4202,3.4221,3.4401,3.4407,3.4278,3.4357,3.437,3.4415,3.4475,3.4481,3.4423,3.4418,3.4527,3.454,3.4553,3.4695,3.4584,3.4591,3.4596,3.4911,3.4915,3.492,0,0,0,0,0,0,3.4197,3.4218,3.4396,3.4314,3.4336,3.4365,3.4416,3.4419,3.445,3.4486,3.4491,3.445,3.4525,3.4542,3.4642,3.4698,3.4595,3.4602,3.4906,3.4912,3.4917,3.4982,0,0,0,0,0,0,3.419,3.4217,3.4264,3.4315,3.434,3.4485,3.442,3.4423,3.4463,3.4458,3.4512,3.4518,3.4523,3.463,3.4649,3.4707,3.4608,3.4901,3.4909,3.4916,3.4975,3.4989,3.5002,0,0,0,0,0,3.4181,3.4279,3.4267,3.4289,3.44,3.4488,3.4503,3.4508,3.4468,3.4515,3.4537,3.4516,3.4689,3.4641,3.4662,3.4723,3.4898,3.4907,3.4915,3.4969,3.4987,3.5002,0,0,0,0,0,0,3.4235,3.4286,3.4273,3.439,3.4435,3.4482,3.4541,3.4527,3.4584,3.4576,3.4579,3.4592,3.4694,3.4719,3.4664,3.4841,3.4787,3.4801,3.4821,3.4838,3.4851,3.4842,3.4615,0,0,0,0,0,3.426,3.4328,3.4369,3.4468,3.4491,3.4512,3.4551,3.4551,3.4597,3.4616,3.4646,3.4692,3.4756,3.4799,3.486,3.4978,3.4988,3.503,3.5044,3.5055,3.5066,3.5126,3.5144,3.4948,3.4948,3.4948,0,0,3.4313,3.4349,3.4392,3.448,3.4514,3.4583,3.4529,3.4605,3.4655,3.4628,3.4723,3.4747,3.4798,3.4906,3.4956,3.493,3.5122,3.5066,3.5074,3.508,3.5137,3.5155,3.5172,3.4954,3.4953,3.4952,0,0,3.4445,3.448,3.4565,3.46,3.4653,3.4666,3.4686,3.4735,3.4749,3.4845,3.4824,3.4883,3.4995,3.5031,3.5064,3.5204,3.5185,3.5224,3.5294,3.5352,3.5368,3.5381,3.5428,3.5446,3.5236,3.5236,3.5236,0,3.4504,3.4608,3.4611,3.4687,3.4725,3.4702,3.4786,3.482,3.489,3.4916,3.4886,3.5022,3.5056,3.517,3.5204,3.5233,3.5253,3.5218,3.5365,3.5379,3.5392,3.5437,3.5455,3.524,3.5239,3.5239,3.5239,0,3.4676,3.4748,3.481,3.4877,3.4922,3.5002,3.5015,3.5059,3.5054,3.5069,3.5165,3.5203,3.527,3.5297,3.5294,3.541,3.5392,3.5364,3.531,3.5415,3.5456,3.5474,3.5246,3.5244,3.5243,3.5242,0,0,3.4847,3.4911,3.4934,3.4962,3.5017,3.5072,3.5149,3.5214,3.525,3.5299,3.5362,3.5455,3.5428,3.5465,3.5465,3.5517,3.5621,3.5482,3.5483,3.5504,3.5748,3.5767,3.5787,3.5609,3.5612,3.5615,3.5742,0,3.498,3.5117,3.512,3.5245,3.5309,3.5286,3.5353,3.5393,3.5408,3.5464,3.5481,3.5545,3.5506,3.5528,3.5578,3.5598,3.567,3.5589,3.5666,3.5668,3.5652,3.581,3.5831,3.595,3.5759,3.5762,3.5764,0,3.5156,3.5208,3.5338,3.538,3.5407,3.5467,3.5524,3.5579,3.5622,3.5629,3.5669,3.566,3.5736,3.568,3.5784,3.5729,3.576,3.5774,3.5778,3.5785,3.5721,3.5817,3.5988,3.6005,3.579,3.5788,3.5786,0,3.5263,3.5366,3.5456,3.5481,3.5533,3.5575,3.5599,3.5638,3.5675,3.5725,3.5748,3.5807,3.5838,3.5883,3.5888,3.5848,3.5991,3.5937,3.5997,3.5997,3.6028,3.6026,3.6204,3.6052,3.6052,3.6051,3.6051,0,3.5411,3.5491,3.5504,3.556,3.5647,3.5649,3.5735,3.5755,3.579,3.5847,3.5831,3.5885,3.589,3.5945,3.595,3.6033,3.6048,3.6054,3.6054,3.6055,3.6053,3.6074,3.6065,3.6056,3.6055,3.6054,3.6053,0,3.5546,3.5558,3.5654,3.5694,3.5706,3.5768,3.5802,3.5853,3.5866,3.5938,3.5955,3.5975,3.6038,3.6048,3.6123,3.6126,3.6224,3.6217,3.621,3.6208,3.6267,3.626,3.6463,3.6488,3.6322,3.6323,3.6325,0,3.5638,3.5699,3.5744,3.5781,3.5806,3.5867,3.5904,3.5906,3.5945,3.5997,3.6041,3.6103,3.6152,3.6253,3.6273,3.6329,3.6322,3.6389,3.633,3.6327,3.6319,3.6314,3.6319,3.64,3.6401,3.6403,3.6404,0,3.5801,3.5803,3.5857,3.5913,3.5957,3.6001,3.6043,3.6074,3.6081,3.6125,3.6189,3.6227,3.6301,3.6361,3.6416,3.6438,3.6422,3.6422,3.6439,3.6439,3.643,3.6432,3.6238,3.6418,3.6416,3.6415,3.6415,3.6414,3.5916,3.5967,3.6005,3.6065,3.6096,3.6134,3.6183,3.6201,3.6255,3.6315,3.6313,3.6382,3.642,3.6491,3.6517,3.657,3.6548,3.6573,3.6578,3.6584,3.6588,3.6424,3.658,3.658,3.6579,3.6579,3.6579,0,3.6074,3.6097,3.6152,3.621,3.6256,3.6236,3.628,3.6319,3.638,3.6417,3.6464,3.6535,3.6592,3.6616,3.6671,3.6708,3.6702,3.6723,3.6719,3.6723,3.6606,3.6585,3.6727,3.6727,3.6727,3.6727,3.6727,3.6726,3.6162,3.6247,3.6253,3.6351,3.6373,3.644,3.6466,3.65,3.6529,3.6609,3.6656,3.667,3.67,3.6757,3.6807,3.6812,3.6832,3.6856,3.6857,3.6747,3.6732,3.6718,3.6698,3.6861,3.6861,3.697,3.6971,3.6972]},{"header":{"parameterUnit":"m.s-1","parameterCategory":1,"la1":30.2991,"la2":30.254,"lo1":-89.0895,"lo2":-89.0444,"dy":0.0017,"dx":0.0017,"nx":28,"ny":28,"refTime":"2025-05-28T09:00:00:Z","depth":0,"parameterNumber":3,"parameterNumberName":"V-component_of_WINDS"},"data":[0,0,0,0,0,0,0,0,0,0,0,0,0,0,0,0,0,0,0,0,0,0,0,0,0,0,0,0,0,0,0,0,0,0,0,0,0,0,0,0,0,0,0,0,0,0,0,0,0,0,0,0,0,0,0,0,0,0,1.1417,1.1417,0,1.1499,1.15,1.1501,1.1489,1.1488,1.1486,1.1485,1.1569,1.1572,1.1576,0,0,0,0,0,0,0,0,0,0,0,0,0,1.1245,1.1248,1.1417,1.1418,1.1419,1.1499,1.15,1.1501,1.1489,1.1488,1.1486,1.1484,1.1568,1.1572,1.1576,0,0,0,0,0,0,0,0,0,0,0,0,0,1.1323,1.1249,1.1416,1.1422,1.1424,1.1499,1.15,1.1502,1.149,1.1488,1.1486,1.1484,1.1566,1.1571,1.1577,1.1651,0,0,1.1593,1.1595,0,0,0,0,0,0,0,0,1.1318,1.1329,1.142,1.1422,1.1424,1.1482,1.147,1.1552,1.149,1.1465,1.1485,1.1483,1.1541,1.1549,1.1569,1.1655,1.1658,1.1593,1.1596,1.1599,1.16,0,0,0,0,0,0,0,1.1313,1.1325,1.1449,1.1422,1.1424,1.142,1.1429,1.1486,1.1514,1.1467,1.1466,1.1476,1.1542,1.1564,1.1571,1.166,1.1593,1.1598,1.1601,1.1603,1.1808,1.1811,0,0,0,0,0,0,1.1306,1.1321,1.1447,1.1452,1.1365,1.1425,1.1434,1.1465,1.1513,1.1518,1.1478,1.1475,1.1556,1.1564,1.1573,1.1663,1.1599,1.1604,1.1607,1.1806,1.1809,1.1811,0,0,0,0,0,0,1.1303,1.1318,1.1443,1.1386,1.1402,1.143,1.1464,1.1468,1.149,1.1521,1.1526,1.1495,1.1554,1.1566,1.1631,1.1666,1.1606,1.1611,1.1804,1.1807,1.181,1.1843,0,0,0,0,0,0,1.1298,1.1316,1.1346,1.1387,1.1405,1.1501,1.1467,1.1471,1.1499,1.1496,1.1539,1.1544,1.1554,1.1623,1.1637,1.1672,1.1615,1.1801,1.1805,1.1809,1.1839,1.1847,1.1854,0,0,0,0,0,1.1292,1.1352,1.1347,1.1363,1.1443,1.1503,1.1513,1.1524,1.1502,1.1531,1.1551,1.1543,1.1659,1.163,1.1645,1.1682,1.1799,1.1804,1.1809,1.1836,1.1846,1.1854,0,0,0,0,0,0,1.1315,1.1358,1.1353,1.1429,1.1462,1.1501,1.1539,1.1534,1.1574,1.157,1.158,1.159,1.1656,1.1675,1.1642,1.1756,1.1726,1.1734,1.1741,1.1751,1.1758,1.1753,1.1619,0,0,0,0,0,1.1328,1.1375,1.1409,1.1473,1.149,1.1511,1.1538,1.1542,1.1578,1.1592,1.1616,1.165,1.1694,1.1723,1.1766,1.1841,1.1849,1.1873,1.1881,1.1887,1.1895,1.1934,1.1945,1.1828,1.1828,1.1828,0,0,1.1358,1.1387,1.1416,1.1478,1.1505,1.1551,1.1523,1.1574,1.1609,1.1599,1.1663,1.1681,1.172,1.179,1.1822,1.1808,1.1928,1.1893,1.1898,1.1902,1.1941,1.1952,1.1961,1.1832,1.1831,1.1831,0,0,1.1435,1.1462,1.1517,1.1544,1.1584,1.1598,1.161,1.1649,1.1662,1.1725,1.1718,1.1758,1.1835,1.1862,1.1886,1.1969,1.1963,1.1983,1.2023,1.2061,1.2071,1.2079,1.2108,1.2119,1.199,1.199,1.199,0,1.1467,1.1538,1.1546,1.1598,1.1625,1.1617,1.1672,1.1698,1.175,1.1768,1.1751,1.1845,1.187,1.1946,1.1966,1.1986,1.2,1.1979,1.2069,1.2077,1.2085,1.2113,1.2124,1.1992,1.1992,1.1991,1.1991,0,1.1574,1.1623,1.1662,1.1713,1.1744,1.1797,1.1812,1.1842,1.1843,1.1857,1.1921,1.195,1.1998,1.2016,1.2017,1.2091,1.2081,1.2066,1.2037,1.2098,1.2125,1.2136,1.1995,1.1994,1.1994,1.1993,0,0,1.1671,1.1723,1.1738,1.176,1.1802,1.184,1.1891,1.1937,1.1963,1.1997,1.204,1.2103,1.2089,1.2116,1.212,1.2154,1.2217,1.2135,1.2136,1.2149,1.23,1.2311,1.2324,1.2212,1.2214,1.2216,1.2296,0,1.1753,1.1845,1.1853,1.1935,1.198,1.1972,1.2016,1.2046,1.206,1.2099,1.2114,1.2159,1.2137,1.2152,1.2185,1.2203,1.2248,1.2197,1.2252,1.2254,1.2244,1.2338,1.2351,1.2426,1.2307,1.2309,1.231,0,1.1862,1.19,1.1987,1.2021,1.204,1.208,1.2122,1.2159,1.2192,1.22,1.2228,1.2227,1.2278,1.2245,1.2315,1.228,1.2302,1.2314,1.2317,1.2324,1.2287,1.2348,1.245,1.2461,1.2327,1.2325,1.2324,0,1.1925,1.1997,1.2058,1.2077,1.2118,1.2146,1.2165,1.2195,1.2222,1.2258,1.2275,1.2316,1.2339,1.237,1.2379,1.2355,1.2449,1.2417,1.2456,1.2456,1.2478,1.2477,1.2586,1.2491,1.249,1.249,1.249,0,1.2016,1.207,1.2087,1.2124,1.2183,1.219,1.2248,1.2264,1.2291,1.2331,1.2325,1.2362,1.2371,1.241,1.2417,1.2473,1.2483,1.249,1.2492,1.2492,1.2491,1.2508,1.2503,1.2493,1.2493,1.2492,1.2491,0,1.2097,1.2111,1.2177,1.221,1.2219,1.2261,1.2288,1.2324,1.2336,1.2386,1.2398,1.2417,1.2461,1.2472,1.2526,1.253,1.2597,1.2593,1.2586,1.2587,1.2625,1.2622,1.275,1.2767,1.266,1.2661,1.2662,0,1.2156,1.2196,1.2233,1.2259,1.2279,1.2321,1.2348,1.2355,1.2383,1.2422,1.2452,1.2496,1.2532,1.2603,1.262,1.266,1.2658,1.27,1.2664,1.2662,1.2659,1.2657,1.2661,1.2707,1.2708,1.2709,1.271,0,1.2257,1.2261,1.2301,1.2342,1.2374,1.2406,1.2437,1.2459,1.247,1.2501,1.2546,1.2574,1.2627,1.267,1.271,1.2728,1.2721,1.2721,1.2732,1.2733,1.2728,1.2731,1.2606,1.2718,1.2718,1.2717,1.2717,1.2716,1.2329,1.2365,1.2396,1.2439,1.2463,1.2491,1.2526,1.2541,1.2579,1.2624,1.2625,1.2674,1.2703,1.2756,1.2775,1.2813,1.28,1.2816,1.2821,1.2825,1.2828,1.272,1.282,1.2819,1.2819,1.2819,1.2819,0,1.2431,1.245,1.249,1.2533,1.2566,1.2556,1.2589,1.2617,1.2661,1.2689,1.2723,1.2774,1.2815,1.2835,1.2875,1.2901,1.2899,1.2912,1.291,1.2914,1.2837,1.2824,1.2913,1.2913,1.2913,1.2913,1.2913,1.2913,1.2488,1.2548,1.2555,1.2624,1.2642,1.2691,1.2711,1.2736,1.2758,1.2816,1.285,1.2862,1.2886,1.2927,1.2964,1.2968,1.2984,1.2998,1.3001,1.2929,1.292,1.2911,1.2898,1.3001,1.3001,1.3075,1.3076,1.3076]}]]